contact:dominique.lefevre@mio.osupytheas.fr, maurice.libes@osupytheas.fr, didier.mallarino@osupytheas.fr
Project:EMSO http://www.emso-fr.org/EMSO-France
Depth: 2436.0 m
Title:EMSO Ligure Ouest : Data MII capteur MICROCAT
DateTime_Computer,Latitude,Longitude,Temperature,Conductivity,Pressure,DateTime_Instrument
DateTime_Computer,Latitude,Longitude,degC,S m-1,dbar,DateTime_Instrument
2020-10-11T00:02:37Z,42.805,6.029,13.2971,4.59983,2470.147,2020-10-11T02:03:31Z
2020-10-11T00:05:40Z,42.805,6.029,13.2976,4.59986,2470.11,2020-10-11T02:06:34Z
2020-10-11T00:08:43Z,42.805,6.029,13.2974,4.59984,2470.18,2020-10-11T02:09:37Z
2020-10-11T00:11:46Z,42.805,6.029,13.2969,4.59980,2470.166,2020-10-11T02:12:40Z
2020-10-11T00:14:50Z,42.805,6.029,13.2976,4.59985,2470.156,2020-10-11T02:15:43Z
2020-10-11T00:17:53Z,42.805,6.029,13.2974,4.59993,2470.156,2020-10-11T02:18:46Z
2020-10-11T00:20:56Z,42.805,6.029,13.2976,4.59989,2470.156,2020-10-11T02:21:50Z
2020-10-11T00:23:59Z,42.805,6.029,13.2975,4.59981,2470.171,2020-10-11T02:24:53Z
2020-10-11T00:27:02Z,42.805,6.029,13.2968,4.59982,2470.189,2020-10-11T02:27:56Z
2020-10-11T00:30:05Z,42.805,6.029,13.2976,4.59983,2470.171,2020-10-11T02:30:59Z
2020-10-11T00:33:08Z,42.805,6.029,13.2973,4.59983,2470.171,2020-10-11T02:34:02Z
2020-10-11T00:36:11Z,42.805,6.029,13.2971,4.59981,2470.133,2020-10-11T02:37:05Z
2020-10-11T00:39:15Z,42.805,6.029,13.2974,4.59979,2470.156,2020-10-11T02:40:08Z
2020-10-11T00:42:18Z,42.805,6.029,13.2974,4.59981,2470.217,2020-10-11T02:43:11Z
2020-10-11T00:45:21Z,42.805,6.029,13.2976,4.59994,2470.171,2020-10-11T02:46:15Z
2020-10-11T00:48:24Z,42.805,6.029,13.2974,4.59986,2470.156,2020-10-11T02:49:18Z
2020-10-11T00:51:27Z,42.805,6.029,13.2971,4.59984,2470.133,2020-10-11T02:52:21Z
2020-10-11T00:54:30Z,42.805,6.029,13.2977,4.59982,2470.133,2020-10-11T02:55:24Z
2020-10-11T00:57:33Z,42.805,6.029,13.2971,4.59984,2470.147,2020-10-11T02:58:27Z
2020-10-11T01:00:36Z,42.805,6.029,13.2971,4.59982,2470.156,2020-10-11T03:01:30Z
2020-10-11T01:03:40Z,42.805,6.029,13.2970,4.59991,2470.171,2020-10-11T03:04:33Z
2020-10-11T01:06:43Z,42.805,6.029,13.2971,4.59985,2470.156,2020-10-11T03:07:36Z
2020-10-11T01:09:46Z,42.805,6.029,13.2974,4.59981,2470.18,2020-10-11T03:10:39Z
2020-10-11T01:12:49Z,42.805,6.029,13.2971,4.59982,2470.156,2020-10-11T03:13:43Z
2020-10-11T01:15:52Z,42.805,6.029,13.2974,4.59981,2470.133,2020-10-11T03:16:46Z
2020-10-11T01:18:55Z,42.805,6.029,13.2974,4.59981,2470.156,2020-10-11T03:19:49Z
2020-10-11T01:21:58Z,42.805,6.029,13.2972,4.59980,2470.133,2020-10-11T03:22:52Z
2020-10-11T01:25:01Z,42.805,6.029,13.2973,4.59987,2470.156,2020-10-11T03:25:55Z
2020-10-11T01:28:05Z,42.805,6.029,13.2972,4.59986,2470.156,2020-10-11T03:28:58Z
2020-10-11T01:31:08Z,42.805,6.029,13.2972,4.59987,2470.133,2020-10-11T03:32:01Z
2020-10-11T01:34:11Z,42.805,6.029,13.2976,4.59986,2470.203,2020-10-11T03:35:04Z
2020-10-11T01:37:14Z,42.805,6.029,13.2974,4.59984,2470.133,2020-10-11T03:38:08Z
2020-10-11T01:40:17Z,42.805,6.029,13.2974,4.59983,2470.171,2020-10-11T03:41:11Z
2020-10-11T01:43:20Z,42.805,6.029,13.2973,4.59985,2470.147,2020-10-11T03:44:14Z
2020-10-11T01:46:23Z,42.805,6.029,13.2974,4.59981,2470.147,2020-10-11T03:47:17Z
2020-10-11T01:49:26Z,42.805,6.029,13.2972,4.59984,2470.156,2020-10-11T03:50:20Z
2020-10-11T01:52:29Z,42.805,6.029,13.2974,4.59987,2470.156,2020-10-11T03:53:23Z
2020-10-11T01:55:33Z,42.805,6.029,13.2976,4.59992,2470.171,2020-10-11T03:56:26Z
2020-10-11T01:58:36Z,42.805,6.029,13.2977,4.59984,2470.156,2020-10-11T03:59:29Z
2020-10-11T02:01:39Z,42.805,6.029,13.2972,4.59986,2470.147,2020-10-11T04:02:33Z
2020-10-11T02:04:42Z,42.805,6.029,13.2976,4.59991,2470.11,2020-10-11T04:05:36Z
2020-10-11T02:07:45Z,42.805,6.029,13.2974,4.59989,2470.147,2020-10-11T04:08:39Z
2020-10-11T02:10:48Z,42.805,6.029,13.2976,4.59983,2470.171,2020-10-11T04:11:42Z
2020-10-11T02:13:51Z,42.805,6.029,13.2974,4.59986,2470.156,2020-10-11T04:14:45Z
2020-10-11T02:16:54Z,42.805,6.029,13.2974,4.59990,2470.171,2020-10-11T04:17:48Z
2020-10-11T02:19:58Z,42.805,6.029,13.2971,4.59989,2470.18,2020-10-11T04:20:51Z
2020-10-11T02:23:01Z,42.805,6.029,13.2969,4.59986,2470.133,2020-10-11T04:23:54Z
2020-10-11T02:26:04Z,42.805,6.029,13.2969,4.59986,2470.156,2020-10-11T04:26:58Z
2020-10-11T02:29:07Z,42.805,6.029,13.2971,4.59985,2470.194,2020-10-11T04:30:01Z
2020-10-11T02:32:10Z,42.805,6.029,13.2974,4.59991,2470.11,2020-10-11T04:33:04Z
2020-10-11T02:35:13Z,42.805,6.029,13.2974,4.59992,2470.156,2020-10-11T04:36:07Z
2020-10-11T02:38:16Z,42.805,6.029,13.2972,4.59997,2470.124,2020-10-11T04:39:10Z
2020-10-11T02:41:19Z,42.805,6.029,13.2974,4.60002,2470.156,2020-10-11T04:42:13Z
2020-10-11T02:44:23Z,42.805,6.029,13.3066,4.60012,2470.171,2020-10-11T04:45:16Z
2020-10-11T02:47:26Z,42.805,6.029,13.3030,4.60023,2470.156,2020-10-11T04:48:19Z
2020-10-11T02:50:29Z,42.805,6.029,13.2991,4.60016,2470.147,2020-10-11T04:51:23Z
2020-10-11T02:53:32Z,42.805,6.029,13.2981,4.60024,2470.171,2020-10-11T04:54:26Z
2020-10-11T02:56:35Z,42.805,6.029,13.3054,4.60043,2470.171,2020-10-11T04:57:29Z
2020-10-11T02:59:38Z,42.805,6.029,13.3027,4.60031,2470.133,2020-10-11T05:00:32Z
2020-10-11T03:02:41Z,42.805,6.029,13.3029,4.60008,2470.194,2020-10-11T05:03:35Z
2020-10-11T03:05:44Z,42.805,6.029,13.3007,4.60009,2470.171,2020-10-11T05:06:38Z
2020-10-11T03:08:48Z,42.805,6.029,13.3052,4.60019,2470.171,2020-10-11T05:09:41Z
2020-10-11T03:11:51Z,42.805,6.029,13.3015,4.60000,2470.147,2020-10-11T05:12:44Z
2020-10-11T03:14:54Z,42.805,6.029,13.2982,4.59998,2470.156,2020-10-11T05:15:47Z
2020-10-11T03:17:57Z,42.805,6.029,13.3015,4.60019,2470.156,2020-10-11T05:18:51Z
2020-10-11T03:21:00Z,42.805,6.029,13.3019,4.60013,2470.18,2020-10-11T05:21:54Z
2020-10-11T03:24:03Z,42.805,6.029,13.3011,4.60007,2470.156,2020-10-11T05:24:57Z
2020-10-11T03:27:06Z,42.805,6.029,13.3009,4.60012,2470.156,2020-10-11T05:28:00Z
2020-10-11T03:30:09Z,42.805,6.029,13.3011,4.60021,2470.18,2020-10-11T05:31:03Z
2020-10-11T03:33:13Z,42.805,6.029,13.3029,4.60016,2470.133,2020-10-11T05:34:06Z
2020-10-11T03:36:16Z,42.805,6.029,13.3009,4.60006,2470.171,2020-10-11T05:37:09Z
2020-10-11T03:39:19Z,42.805,6.029,13.3000,4.60005,2470.18,2020-10-11T05:40:12Z
2020-10-11T03:42:22Z,42.805,6.029,13.2992,4.60008,2470.133,2020-10-11T05:43:16Z
2020-10-11T03:45:25Z,42.805,6.029,13.2980,4.60016,2470.171,2020-10-11T05:46:19Z
2020-10-11T03:48:28Z,42.805,6.029,13.2976,4.60010,2470.147,2020-10-11T05:49:22Z
2020-10-11T03:51:31Z,42.805,6.029,13.3011,4.60018,2470.156,2020-10-11T05:52:25Z
2020-10-11T03:54:34Z,42.805,6.029,13.3016,4.60021,2470.156,2020-10-11T05:55:28Z
2020-10-11T03:57:38Z,42.805,6.029,13.3069,4.60039,2470.156,2020-10-11T05:58:31Z
2020-10-11T04:00:41Z,42.805,6.029,13.3003,4.60024,2470.133,2020-10-11T06:01:34Z
2020-10-11T04:03:44Z,42.805,6.029,13.2977,4.60011,2470.147,2020-10-11T06:04:37Z
2020-10-11T04:06:47Z,42.805,6.029,13.2975,4.60009,2470.156,2020-10-11T06:07:41Z
2020-10-11T04:09:50Z,42.805,6.029,13.2991,4.59999,2470.147,2020-10-11T06:10:44Z
2020-10-11T04:12:53Z,42.805,6.029,13.3010,4.60011,2470.147,2020-10-11T06:13:47Z
2020-10-11T04:15:56Z,42.805,6.029,13.3031,4.60011,2470.147,2020-10-11T06:16:50Z
2020-10-11T04:18:59Z,42.805,6.029,13.3013,4.59996,2470.156,2020-10-11T06:19:53Z
2020-10-11T04:22:03Z,42.805,6.029,13.2977,4.60005,2470.147,2020-10-11T06:22:56Z
2020-10-11T04:25:06Z,42.805,6.029,13.3021,4.60003,2470.133,2020-10-11T06:25:59Z
2020-10-11T04:28:09Z,42.805,6.029,13.2983,4.60025,2470.133,2020-10-11T06:29:02Z
2020-10-11T04:31:12Z,42.805,6.029,13.2985,4.59998,2470.171,2020-10-11T06:32:06Z
2020-10-11T04:34:15Z,42.805,6.029,13.3011,4.60006,2470.133,2020-10-11T06:35:09Z
2020-10-11T04:37:18Z,42.805,6.029,13.3011,4.60010,2470.133,2020-10-11T06:38:12Z
2020-10-11T04:40:21Z,42.805,6.029,13.2991,4.60019,2470.147,2020-10-11T06:41:15Z
2020-10-11T04:43:24Z,42.805,6.029,13.2990,4.60001,2470.147,2020-10-11T06:44:18Z
2020-10-11T04:46:27Z,42.805,6.029,13.2982,4.60005,2470.147,2020-10-11T06:47:21Z
2020-10-11T04:49:31Z,42.805,6.029,13.2975,4.59995,2470.124,2020-10-11T06:50:24Z
2020-10-11T04:52:34Z,42.805,6.029,13.2973,4.59984,2470.147,2020-10-11T06:53:27Z
2020-10-11T04:55:37Z,42.805,6.029,13.2986,4.59990,2470.147,2020-10-11T06:56:31Z
2020-10-11T04:58:40Z,42.805,6.029,13.2981,4.60001,2470.133,2020-10-11T06:59:34Z
2020-10-11T05:01:43Z,42.805,6.029,13.2979,4.59994,2470.133,2020-10-11T07:02:37Z
2020-10-11T05:04:46Z,42.805,6.029,13.2983,4.60003,2470.147,2020-10-11T07:05:40Z
2020-10-11T05:07:49Z,42.805,6.029,13.2978,4.60005,2470.133,2020-10-11T07:08:43Z
2020-10-11T05:10:52Z,42.805,6.029,13.2980,4.60000,2470.156,2020-10-11T07:11:46Z
2020-10-11T05:13:56Z,42.805,6.029,13.3014,4.60002,2470.133,2020-10-11T07:14:49Z
2020-10-11T05:16:59Z,42.805,6.029,13.2977,4.60008,2470.147,2020-10-11T07:17:52Z
2020-10-11T05:20:02Z,42.805,6.029,13.2980,4.59992,2470.11,2020-10-11T07:20:56Z
2020-10-11T05:23:05Z,42.805,6.029,13.2970,4.59991,2470.124,2020-10-11T07:23:59Z
2020-10-11T05:26:08Z,42.805,6.029,13.2974,4.59989,2470.133,2020-10-11T07:27:02Z
2020-10-11T05:29:11Z,42.805,6.029,13.2982,4.59992,2470.133,2020-10-11T07:30:05Z
2020-10-11T05:32:14Z,42.805,6.029,13.2976,4.60014,2470.124,2020-10-11T07:33:08Z
2020-10-11T05:35:17Z,42.805,6.029,13.2978,4.59997,2470.133,2020-10-11T07:36:11Z
2020-10-11T05:38:21Z,42.805,6.029,13.2982,4.59999,2470.11,2020-10-11T07:39:14Z
2020-10-11T05:41:24Z,42.805,6.029,13.2975,4.59988,2470.156,2020-10-11T07:42:17Z
2020-10-11T05:44:27Z,42.805,6.029,13.2976,4.60000,2470.124,2020-10-11T07:45:21Z
2020-10-11T05:47:30Z,42.805,6.029,13.2979,4.59990,2470.11,2020-10-11T07:48:24Z
2020-10-11T05:50:33Z,42.805,6.029,13.2974,4.59987,2470.1,2020-10-11T07:51:27Z
2020-10-11T05:53:36Z,42.805,6.029,13.2972,4.59985,2470.11,2020-10-11T07:54:30Z
2020-10-11T05:56:39Z,42.805,6.029,13.2974,4.59982,2470.11,2020-10-11T07:57:33Z
2020-10-11T05:59:42Z,42.805,6.029,13.2977,4.59982,2470.1,2020-10-11T08:00:36Z
2020-10-11T06:02:46Z,42.805,6.029,13.2973,4.59981,2470.133,2020-10-11T08:03:39Z
2020-10-11T06:05:49Z,42.805,6.029,13.2978,4.59981,2470.11,2020-10-11T08:06:42Z
2020-10-11T06:08:52Z,42.805,6.029,13.2976,4.59980,2470.124,2020-10-11T08:09:46Z
2020-10-11T06:11:55Z,42.805,6.029,13.2973,4.59981,2470.1,2020-10-11T08:12:49Z
2020-10-11T06:14:58Z,42.805,6.029,13.2974,4.59983,2470.133,2020-10-11T08:15:52Z
2020-10-11T06:18:01Z,42.805,6.029,13.2976,4.59984,2470.124,2020-10-11T08:18:55Z
2020-10-11T06:21:04Z,42.805,6.029,13.2968,4.59981,2470.087,2020-10-11T08:21:58Z
2020-10-11T06:24:07Z,42.805,6.029,13.2979,4.59980,2470.11,2020-10-11T08:25:01Z
2020-10-11T06:27:11Z,42.805,6.029,13.2974,4.59979,2470.133,2020-10-11T08:28:04Z
2020-10-11T06:30:14Z,42.805,6.029,13.2971,4.59981,2470.133,2020-10-11T08:31:07Z
2020-10-11T06:33:17Z,42.805,6.029,13.2974,4.59980,2470.11,2020-10-11T08:34:10Z
2020-10-11T06:36:20Z,42.805,6.029,13.2972,4.59981,2470.133,2020-10-11T08:37:14Z
2020-10-11T06:39:23Z,42.805,6.029,13.2970,4.59979,2470.124,2020-10-11T08:40:17Z
2020-10-11T06:42:26Z,42.805,6.029,13.2976,4.59978,2470.073,2020-10-11T08:43:20Z
2020-10-11T06:45:29Z,42.805,6.029,13.2975,4.59978,2470.11,2020-10-11T08:46:23Z
2020-10-11T06:48:32Z,42.805,6.029,13.2973,4.59977,2470.11,2020-10-11T08:49:26Z
2020-10-11T06:51:36Z,42.805,6.029,13.2971,4.59978,2470.147,2020-10-11T08:52:29Z
2020-10-11T06:54:39Z,42.805,6.029,13.2976,4.59981,2470.063,2020-10-11T08:55:32Z
2020-10-11T06:57:42Z,42.805,6.029,13.2974,4.59979,2470.1,2020-10-11T08:58:36Z
2020-10-11T07:00:45Z,42.805,6.029,13.2968,4.59978,2470.11,2020-10-11T09:01:39Z
2020-10-11T07:03:48Z,42.805,6.029,13.2973,4.59977,2470.063,2020-10-11T09:04:42Z
2020-10-11T07:06:51Z,42.805,6.029,13.2973,4.59978,2470.133,2020-10-11T09:07:45Z
2020-10-11T07:09:54Z,42.805,6.029,13.2979,4.59978,2470.147,2020-10-11T09:10:48Z
2020-10-11T07:12:57Z,42.805,6.029,13.2970,4.59976,2470.1,2020-10-11T09:13:51Z
2020-10-11T07:16:01Z,42.805,6.029,13.2972,4.59976,2470.124,2020-10-11T09:16:54Z
2020-10-11T07:19:04Z,42.805,6.029,13.2973,4.59978,2470.087,2020-10-11T09:19:57Z
2020-10-11T07:22:07Z,42.805,6.029,13.2974,4.59976,2470.124,2020-10-11T09:23:00Z
2020-10-11T07:25:10Z,42.805,6.029,13.2973,4.59977,2470.11,2020-10-11T09:26:04Z
2020-10-11T07:28:13Z,42.805,6.029,13.2977,4.59977,2470.124,2020-10-11T09:29:07Z
2020-10-11T07:31:16Z,42.805,6.029,13.2976,4.59978,2470.133,2020-10-11T09:32:10Z
2020-10-11T07:34:19Z,42.805,6.029,13.2974,4.59979,2470.11,2020-10-11T09:35:13Z
2020-10-11T07:37:22Z,42.805,6.029,13.2974,4.59978,2470.077,2020-10-11T09:38:16Z
2020-10-11T07:40:26Z,42.805,6.029,13.2976,4.59978,2470.087,2020-10-11T09:41:19Z
2020-10-11T07:43:29Z,42.805,6.029,13.2975,4.59977,2470.087,2020-10-11T09:44:22Z
2020-10-11T07:46:32Z,42.805,6.029,13.2970,4.59978,2470.119,2020-10-11T09:47:25Z
2020-10-11T07:49:35Z,42.805,6.029,13.2976,4.59977,2470.1,2020-10-11T09:50:29Z
2020-10-11T07:52:38Z,42.805,6.029,13.2975,4.59978,2470.1,2020-10-11T09:53:32Z
2020-10-11T07:55:41Z,42.805,6.029,13.2974,4.59978,2470.087,2020-10-11T09:56:35Z
2020-10-11T07:58:44Z,42.805,6.029,13.2971,4.59978,2470.073,2020-10-11T09:59:38Z
2020-10-11T08:01:47Z,42.805,6.029,13.2975,4.59978,2470.1,2020-10-11T10:02:41Z
2020-10-11T08:04:50Z,42.805,6.029,13.2974,4.59978,2470.11,2020-10-11T10:05:44Z
2020-10-11T08:07:54Z,42.805,6.029,13.2975,4.59978,2470.087,2020-10-11T10:08:47Z
2020-10-11T08:10:57Z,42.805,6.029,13.2975,4.59981,2470.11,2020-10-11T10:11:50Z
2020-10-11T08:14:00Z,42.805,6.029,13.2974,4.59978,2470.124,2020-10-11T10:14:54Z
2020-10-11T08:17:03Z,42.805,6.029,13.2973,4.59977,2470.11,2020-10-11T10:17:57Z
2020-10-11T08:20:06Z,42.805,6.029,13.2972,4.59976,2470.087,2020-10-11T10:21:00Z
2020-10-11T08:23:09Z,42.805,6.029,13.2968,4.59976,2470.087,2020-10-11T10:24:03Z
2020-10-11T08:26:12Z,42.805,6.029,13.2974,4.59978,2470.087,2020-10-11T10:27:06Z
2020-10-11T08:29:15Z,42.805,6.029,13.2972,4.59979,2470.124,2020-10-11T10:30:09Z
2020-10-11T08:32:19Z,42.805,6.029,13.2973,4.59978,2470.087,2020-10-11T10:33:12Z
2020-10-11T08:35:22Z,42.805,6.029,13.2975,4.59976,2470.124,2020-10-11T10:36:15Z
2020-10-11T08:38:25Z,42.805,6.029,13.2971,4.59976,2470.124,2020-10-11T10:39:19Z
2020-10-11T08:41:28Z,42.805,6.029,13.2974,4.59976,2470.087,2020-10-11T10:42:22Z
2020-10-11T08:44:31Z,42.805,6.029,13.2975,4.59979,2470.124,2020-10-11T10:45:25Z
2020-10-11T08:47:34Z,42.805,6.029,13.2973,4.59976,2470.11,2020-10-11T10:48:28Z
2020-10-11T08:50:37Z,42.805,6.029,13.2976,4.59976,2470.133,2020-10-11T10:51:31Z
2020-10-11T08:53:41Z,42.805,6.029,13.2975,4.59976,2470.1,2020-10-11T10:54:34Z
2020-10-11T08:56:44Z,42.805,6.029,13.2974,4.59976,2470.124,2020-10-11T10:57:37Z
2020-10-11T08:59:47Z,42.805,6.029,13.2976,4.59976,2470.124,2020-10-11T11:00:40Z
2020-10-11T09:02:50Z,42.805,6.029,13.2975,4.59976,2470.087,2020-10-11T11:03:44Z
2020-10-11T09:05:53Z,42.805,6.029,13.2974,4.59976,2470.133,2020-10-11T11:06:47Z
2020-10-11T09:08:56Z,42.805,6.029,13.2973,4.59976,2470.11,2020-10-11T11:09:50Z
2020-10-11T09:11:59Z,42.805,6.029,13.2971,4.59978,2470.11,2020-10-11T11:12:53Z
2020-10-11T09:15:02Z,42.805,6.029,13.2974,4.59978,2470.133,2020-10-11T11:15:56Z
2020-10-11T09:18:06Z,42.805,6.029,13.2975,4.59976,2470.11,2020-10-11T11:18:59Z
2020-10-11T09:21:09Z,42.805,6.029,13.2975,4.59976,2470.11,2020-10-11T11:22:02Z
2020-10-11T09:24:12Z,42.805,6.029,13.2974,4.59977,2470.124,2020-10-11T11:25:06Z
2020-10-11T09:27:15Z,42.805,6.029,13.2975,4.59976,2470.087,2020-10-11T11:28:09Z
2020-10-11T09:30:18Z,42.805,6.029,13.2971,4.59976,2470.133,2020-10-11T11:31:12Z
2020-10-11T09:33:21Z,42.805,6.029,13.2972,4.59977,2470.11,2020-10-11T11:34:15Z
2020-10-11T09:36:24Z,42.805,6.029,13.2971,4.59976,2470.11,2020-10-11T11:37:18Z
2020-10-11T09:39:27Z,42.805,6.029,13.2978,4.59976,2470.11,2020-10-11T11:40:21Z
2020-10-11T09:42:31Z,42.805,6.029,13.2971,4.59976,2470.11,2020-10-11T11:43:24Z
2020-10-11T09:45:34Z,42.805,6.029,13.2971,4.59978,2470.156,2020-10-11T11:46:27Z
2020-10-11T09:48:37Z,42.805,6.029,13.2975,4.59978,2470.11,2020-10-11T11:49:31Z
2020-10-11T09:51:40Z,42.805,6.029,13.2974,4.59978,2470.147,2020-10-11T11:52:34Z
2020-10-11T09:54:43Z,42.805,6.029,13.2972,4.59976,2470.11,2020-10-11T11:55:37Z
2020-10-11T09:57:46Z,42.805,6.029,13.2972,4.59976,2470.156,2020-10-11T11:58:40Z
2020-10-11T10:00:49Z,42.805,6.029,13.2971,4.59978,2470.11,2020-10-11T12:01:43Z
2020-10-11T10:03:52Z,42.805,6.029,13.2971,4.59976,2470.147,2020-10-11T12:04:46Z
2020-10-11T10:06:56Z,42.805,6.029,13.2971,4.59976,2470.11,2020-10-11T12:07:49Z
2020-10-11T10:09:59Z,42.805,6.029,13.2974,4.59978,2470.124,2020-10-11T12:10:52Z
2020-10-11T10:13:02Z,42.805,6.029,13.2971,4.59975,2470.11,2020-10-11T12:13:56Z
2020-10-11T10:16:05Z,42.805,6.029,13.2974,4.59976,2470.156,2020-10-11T12:16:59Z
2020-10-11T10:19:08Z,42.805,6.029,13.2971,4.59978,2470.171,2020-10-11T12:20:02Z
2020-10-11T10:22:11Z,42.805,6.029,13.2971,4.59976,2470.133,2020-10-11T12:23:05Z
2020-10-11T10:25:14Z,42.805,6.029,13.2971,4.59978,2470.133,2020-10-11T12:26:08Z
2020-10-11T10:28:17Z,42.805,6.029,13.2971,4.59977,2470.156,2020-10-11T12:29:11Z
2020-10-11T10:31:21Z,42.805,6.029,13.2974,4.59976,2470.119,2020-10-11T12:32:14Z
2020-10-11T10:34:24Z,42.805,6.029,13.2974,4.59978,2470.147,2020-10-11T12:35:17Z
2020-10-11T10:37:27Z,42.805,6.029,13.2974,4.59978,2470.171,2020-10-11T12:38:21Z
2020-10-11T10:40:30Z,42.805,6.029,13.2971,4.59976,2470.156,2020-10-11T12:41:24Z
2020-10-11T10:43:33Z,42.805,6.029,13.2973,4.59975,2470.133,2020-10-11T12:44:27Z
2020-10-11T10:46:36Z,42.805,6.029,13.2972,4.59976,2470.11,2020-10-11T12:47:30Z
2020-10-11T10:49:39Z,42.805,6.029,13.2970,4.59976,2470.156,2020-10-11T12:50:33Z
2020-10-11T10:52:42Z,42.805,6.029,13.2973,4.59975,2470.11,2020-10-11T12:53:36Z
2020-10-11T10:55:46Z,42.805,6.029,13.2973,4.59977,2470.171,2020-10-11T12:56:39Z
2020-10-11T10:58:49Z,42.805,6.029,13.2968,4.59976,2470.161,2020-10-11T12:59:42Z
2020-10-11T11:01:52Z,42.805,6.029,13.2971,4.59979,2470.11,2020-10-11T13:02:46Z
2020-10-11T11:04:55Z,42.805,6.029,13.2972,4.59977,2470.156,2020-10-11T13:05:49Z
2020-10-11T11:07:58Z,42.805,6.029,13.2974,4.59977,2470.133,2020-10-11T13:08:52Z
2020-10-11T11:11:01Z,42.805,6.029,13.2974,4.59976,2470.18,2020-10-11T13:11:55Z
2020-10-11T11:14:04Z,42.805,6.029,13.2974,4.59980,2470.171,2020-10-11T13:14:58Z
2020-10-11T11:17:07Z,42.805,6.029,13.2973,4.59979,2470.156,2020-10-11T13:18:01Z
2020-10-11T11:20:11Z,42.805,6.029,13.2972,4.59979,2470.18,2020-10-11T13:21:04Z
2020-10-11T11:23:14Z,42.805,6.029,13.2976,4.59979,2470.171,2020-10-11T13:24:07Z
2020-10-11T11:26:17Z,42.805,6.029,13.2974,4.59978,2470.156,2020-10-11T13:27:11Z
2020-10-11T11:29:20Z,42.805,6.029,13.2972,4.59979,2470.156,2020-10-11T13:30:14Z
2020-10-11T11:32:23Z,42.805,6.029,13.2973,4.59976,2470.156,2020-10-11T13:33:17Z
2020-10-11T11:35:26Z,42.805,6.029,13.2974,4.59978,2470.217,2020-10-11T13:36:20Z
2020-10-11T11:38:29Z,42.805,6.029,13.2975,4.59980,2470.18,2020-10-11T13:39:23Z
2020-10-11T11:41:32Z,42.805,6.029,13.2975,4.59981,2470.156,2020-10-11T13:42:26Z
2020-10-11T11:44:36Z,42.805,6.029,13.2974,4.59979,2470.156,2020-10-11T13:45:29Z
2020-10-11T11:47:39Z,42.805,6.029,13.2975,4.59979,2470.156,2020-10-11T13:48:32Z
2020-10-11T11:50:42Z,42.805,6.029,13.2974,4.59981,2470.133,2020-10-11T13:51:36Z
2020-10-11T11:53:45Z,42.805,6.029,13.2976,4.59978,2470.194,2020-10-11T13:54:39Z
2020-10-11T11:56:48Z,42.805,6.029,13.2974,4.59979,2470.18,2020-10-11T13:57:42Z
2020-10-11T11:59:51Z,42.805,6.029,13.2974,4.59978,2470.171,2020-10-11T14:00:45Z
2020-10-11T12:02:54Z,42.805,6.029,13.2976,4.59979,2470.18,2020-10-11T14:03:48Z
2020-10-11T12:05:58Z,42.805,6.029,13.2979,4.59978,2470.18,2020-10-11T14:06:51Z
2020-10-11T12:09:01Z,42.805,6.029,13.2977,4.59978,2470.203,2020-10-11T14:09:54Z
2020-10-11T12:12:04Z,42.805,6.029,13.2971,4.59980,2470.194,2020-10-11T14:12:58Z
2020-10-11T12:15:07Z,42.805,6.029,13.2972,4.59979,2470.194,2020-10-11T14:16:01Z
2020-10-11T12:18:10Z,42.805,6.029,13.2979,4.59981,2470.156,2020-10-11T14:19:04Z
2020-10-11T12:21:13Z,42.805,6.029,13.2974,4.59976,2470.171,2020-10-11T14:22:07Z
2020-10-11T12:24:16Z,42.805,6.029,13.2974,4.59978,2470.18,2020-10-11T14:25:10Z
2020-10-11T12:27:19Z,42.805,6.029,13.2974,4.59976,2470.18,2020-10-11T14:28:13Z
2020-10-11T12:30:23Z,42.805,6.029,13.2973,4.59982,2470.18,2020-10-11T14:31:16Z
2020-10-11T12:33:26Z,42.805,6.029,13.2971,4.59979,2470.194,2020-10-11T14:34:19Z
2020-10-11T12:36:29Z,42.805,6.029,13.2976,4.59981,2470.217,2020-10-11T14:37:23Z
2020-10-11T12:39:32Z,42.805,6.029,13.2974,4.59981,2470.217,2020-10-11T14:40:26Z
2020-10-11T12:42:35Z,42.805,6.029,13.2971,4.59978,2470.18,2020-10-11T14:43:29Z
2020-10-11T12:45:38Z,42.805,6.029,13.2974,4.59978,2470.227,2020-10-11T14:46:32Z
2020-10-11T12:48:41Z,42.805,6.029,13.2976,4.59979,2470.217,2020-10-11T14:49:35Z
2020-10-11T12:51:44Z,42.805,6.029,13.2975,4.59977,2470.194,2020-10-11T14:52:38Z
2020-10-11T12:54:48Z,42.805,6.029,13.2974,4.59976,2470.156,2020-10-11T14:55:41Z
2020-10-11T12:57:51Z,42.805,6.029,13.2976,4.59978,2470.18,2020-10-11T14:58:44Z
2020-10-11T13:00:54Z,42.805,6.029,13.2976,4.59976,2470.203,2020-10-11T15:01:48Z
2020-10-11T13:03:57Z,42.805,6.029,13.2977,4.59976,2470.194,2020-10-11T15:04:51Z
2020-10-11T13:07:00Z,42.805,6.029,13.2976,4.59975,2470.194,2020-10-11T15:07:54Z
2020-10-11T13:10:03Z,42.805,6.029,13.2974,4.59979,2470.217,2020-10-11T15:10:57Z
2020-10-11T13:13:06Z,42.805,6.029,13.2972,4.59978,2470.24,2020-10-11T15:14:00Z
2020-10-11T13:16:09Z,42.805,6.029,13.2972,4.59978,2470.203,2020-10-11T15:17:03Z
2020-10-11T13:19:13Z,42.805,6.029,13.2973,4.59977,2470.171,2020-10-11T15:20:06Z
2020-10-11T13:22:16Z,42.805,6.029,13.2971,4.59976,2470.217,2020-10-11T15:23:09Z
2020-10-11T13:25:19Z,42.805,6.029,13.2974,4.59976,2470.203,2020-10-11T15:26:13Z
2020-10-11T13:28:22Z,42.805,6.029,13.2972,4.59976,2470.203,2020-10-11T15:29:16Z
2020-10-11T13:31:25Z,42.805,6.029,13.2973,4.59976,2470.18,2020-10-11T15:32:19Z
2020-10-11T13:34:28Z,42.805,6.029,13.2971,4.59976,2470.203,2020-10-11T15:35:22Z
2020-10-11T13:37:31Z,42.805,6.029,13.2974,4.59976,2470.227,2020-10-11T15:38:25Z
2020-10-11T13:40:34Z,42.805,6.029,13.2974,4.59975,2470.217,2020-10-11T15:41:28Z
2020-10-11T13:43:38Z,42.805,6.029,13.2974,4.59976,2470.18,2020-10-11T15:44:31Z
2020-10-11T13:46:41Z,42.805,6.029,13.2975,4.59976,2470.203,2020-10-11T15:47:34Z
2020-10-11T13:49:44Z,42.805,6.029,13.2973,4.59976,2470.227,2020-10-11T15:50:38Z
2020-10-11T13:52:47Z,42.805,6.029,13.2975,4.59976,2470.203,2020-10-11T15:53:41Z
2020-10-11T13:55:50Z,42.805,6.029,13.2975,4.59978,2470.24,2020-10-11T15:56:44Z
2020-10-11T13:58:53Z,42.805,6.029,13.2972,4.59976,2470.203,2020-10-11T15:59:47Z
2020-10-11T14:01:56Z,42.805,6.029,13.2974,4.59978,2470.227,2020-10-11T16:02:50Z
2020-10-11T14:04:59Z,42.805,6.029,13.2974,4.59976,2470.24,2020-10-11T16:05:53Z
2020-10-11T14:08:03Z,42.805,6.029,13.2977,4.59976,2470.203,2020-10-11T16:08:56Z
2020-10-11T14:11:06Z,42.805,6.029,13.2976,4.59976,2470.24,2020-10-11T16:11:59Z
2020-10-11T14:14:09Z,42.805,6.029,13.2971,4.59978,2470.227,2020-10-11T16:15:03Z
2020-10-11T14:17:12Z,42.805,6.029,13.2973,4.59978,2470.194,2020-10-11T16:18:06Z
2020-10-11T14:20:15Z,42.805,6.029,13.2973,4.59978,2470.24,2020-10-11T16:21:09Z
2020-10-11T14:23:18Z,42.805,6.029,13.2976,4.59981,2470.203,2020-10-11T16:24:12Z
2020-10-11T14:26:21Z,42.805,6.029,13.2973,4.59977,2470.227,2020-10-11T16:27:15Z
2020-10-11T14:29:24Z,42.805,6.029,13.2972,4.59975,2470.18,2020-10-11T16:30:18Z
2020-10-11T14:32:28Z,42.805,6.029,13.2976,4.59977,2470.24,2020-10-11T16:33:21Z
2020-10-11T14:35:31Z,42.805,6.029,13.2973,4.59978,2470.227,2020-10-11T16:36:24Z
2020-10-11T14:38:34Z,42.805,6.029,13.2974,4.59976,2470.227,2020-10-11T16:39:28Z
2020-10-11T14:41:37Z,42.805,6.029,13.2976,4.59976,2470.25,2020-10-11T16:42:31Z
2020-10-11T14:44:40Z,42.805,6.029,13.2970,4.59976,2470.217,2020-10-11T16:45:34Z
2020-10-11T14:47:43Z,42.805,6.029,13.2973,4.59978,2470.203,2020-10-11T16:48:37Z
2020-10-11T14:50:46Z,42.805,6.029,13.2971,4.59976,2470.203,2020-10-11T16:51:40Z
2020-10-11T14:53:50Z,42.805,6.029,13.2974,4.59995,2470.227,2020-10-11T16:54:43Z
2020-10-11T14:56:53Z,42.805,6.029,13.2974,4.59978,2470.227,2020-10-11T16:57:46Z
2020-10-11T14:59:56Z,42.805,6.029,13.2974,4.59981,2470.24,2020-10-11T17:00:50Z
2020-10-11T15:02:59Z,42.805,6.029,13.2975,4.59979,2470.227,2020-10-11T17:03:53Z